Simultaneous Nadir Overpasses (SNOs) Predictions

Prediction of SNOs between AQUA and NOAA-19 Satellite Orbit:

Table of predicted SNOs for the next 14.0 days since TLE Epoch: 12/2/2023
Index Date (AQUA) Time (AQUA) Lat,Lon (AQUA) SZA (AQUA ) Date (NOAA-19) Time (NOAA-19) Lat,Lon (NOAA-19) SZA (NOAA-19 ) Distance(km) Time Diff (sec)
1 12/04/2023 00:39:39 75.48, 165.46 97.58 12/04/2023 00:38:35 75.42, 161.92 97.58 99.12 64
2 12/04/2023 01:29:14 -76.07, -28.67 81.81 12/04/2023 01:29:19 -76.04, -28.66 81.83 2.73 5
3 12/06/2023 05:20:48 76.02, 93.61 98.43 12/06/2023 05:19:37 75.99, 93.65 98.41 3.41 71
4 12/06/2023 06:10:12 -76.07, -98.89 81.52 12/06/2023 06:10:34 -76.06, -98.86 81.53 1.62 22
5 12/08/2023 10:01:44 76.01, 23.43 98.68 12/08/2023 10:00:51 76.01, 23.47 98.68 0.91 53
6 12/08/2023 10:51:08 -76.06,-169.06 81.28 12/08/2023 10:51:49 -76.06,-169.11 81.28 1.41 41
7 12/10/2023 14:42:38 75.99, -46.70 98.87 12/10/2023 14:42:05 76.02, -46.76 98.90 3.41 33
8 12/10/2023 15:32:02 -76.09, 120.66 81.03 12/10/2023 15:33:02 -76.09, 120.76 81.03 2.55 60
9 12/12/2023 19:23:30 76.01,-116.93 99.07 12/12/2023 19:23:18 76.01,-117.03 99.07 2.90 12
10 12/12/2023 20:13:01 -76.39, 49.49 80.53 12/12/2023 20:14:09 -76.42, 51.74 80.54 59.03 68
11 12/14/2023 23:14:51 -75.69, 6.20 81.13 12/14/2023 23:13:42 -75.65, 4.18 81.13 55.83 69
12 12/15/2023 00:04:22 76.06, 172.73 99.26 12/15/2023 00:04:31 76.04, 172.81 99.24 3.11 9



Historial Predications of SNOs between AQUA and NOAA-19
